This is the latest recevied weather packets stored in our database for station/object YO8PIC-12. If no packets are shown the sender has not sent any weather packets the latest 10 day(s).
| Time | Temp. | Humidity | Pressure | Rain* | Wind** | Luminosity | Snow |
|---|---|---|---|---|---|---|---|
| 1787733816 | 22.22° C | 77% | 1023.2 hPa | - | - | - | - |
| 1787733216 | 22.22° C | 76% | 1023.4 hPa | - | - | - | - |
| 1787732616 | 22.22° C | 78% | 1023.2 hPa | - | - | - | - |
| 1787732016 | 22.22° C | 78% | 1023.2 hPa | - | - | - | - |
| 1787731416 | 22.22° C | 78% | 1023.2 hPa | - | - | - | - |
| 1787730816 | 21.67° C | 81% | 1023.1 hPa | - | - | - | - |
| 1787730216 | 21.67° C | 78% | 1023 hPa | - | - | - | - |
| 1787729616 | 21.67° C | 81% | 1022.9 hPa | - | - | - | - |
| 1787729016 | 21.67° C | 82% | 1022.9 hPa | - | - | - | - |
| 1787728416 | 21.67° C | 82% | 1022.8 hPa | - | - | - | - |
| 1787727816 | 21.11° C | 82% | 1022.8 hPa | - | - | - | - |
| 1787727216 | 21.11° C | 83% | 1022.8 hPa | - | - | - | - |
| 1787726616 | 21.11° C | 83% | 1022.8 hPa | - | - | - | - |
| 1787726016 | 21.11° C | 83% | 1022.7 hPa | - | - | - | - |
| 1787725416 | 20.56° C | 84% | 1022.7 hPa | - | - | - | - |
| 1787724816 | 20.56° C | 84% | 1022.6 hPa | - | - | - | - |
| 1787724216 | 20° C | 85% | 1022.6 hPa | - | - | - | - |
| 1787723616 | 19.44° C | 86% | 1022.5 hPa | - | - | - | - |
| 1787723016 | 19.44° C | 86% | 1022.4 hPa | - | - | - | - |
| 1787722416 | 19.44° C | 85% | 1022.3 hPa | - | - | - | - |
| 1787721942 | 20° C | 82% | 1022.3 hPa | - | - | - | - |
| 1787721216 | 20.56° C | 83% | 1022.3 hPa | - | - | - | - |
| 1787720616 | 20° C | 83% | 1022.4 hPa | - | - | - | - |
| 1787720016 | 20° C | 83% | 1022.2 hPa | - | - | - | - |
| 1787719416 | 20° C | 83% | 1022.4 hPa | - | - | - | - |
* Rain since midnight (hover to see other rain measurements)
** Current wind speed in m/s (hover to see current wind gust speed)